EHI
12 6 1 0 0 0 0 0 0 0 0 0 0 0 0 0 0 0 0 0 0 0 1 3 3 2 1 0 0 0 1 2 3 3 1 0 0 1 2 2 2 2 2 1 2 2 2 1 0
7 4 1 0 0 0 0 0 0 0 0 0 0 0 0 0 0 0 0 0 0 1 2 2 3 3 2 1 0 0 0 1 1 1 1 0 0 1 1 1 1 1 1 1 1 1 1 0 0
2 1 0 0 0 0 0 0 0 0 0 0 0 0 0 0 1 1 1 1 0 1 2 3 3 4 2 1 0 0 0 0 0 0 1 1 1 1 0 0 0 0 0 0 0 0 0 0 0
1 0 0 0 0 0 0 0 0 0 0 0 0 0 0 0 0 1 2 2 1 1 2 3 3 3 3 2 2 1 0 0 0 0 1 1 0 0 0 0 0 0 0 0 0 0 0 0 0
0 0 0 0 0 0 0 0 0 0 0 0 0 0 0 0 1 1 3 3 1 1 2 3 3 3 4 5 4 1 0 0 0 0 1 1 1 1 0 0 1 1 1 0 0 0 1 0 0
0 0 0 0 0 0 0 0 0 0 0 0 0 0 0 1 2 2 3 3 2 2 3 3 3 4 5 6 4 2 1 1 0 0 1 2 3 2 1 1 2 2 1 0 0 0 0 0 0
0 0 0 0 0 0 0 0 0 0 0 0 0 0 0 1 2 2 3 3 3 3 3 3 3 4 5 6 5 3 2 2 1 1 2 4 4 3 3 2 2 2 1 0 0 0 0 0 0
0 0 0 0 0 0 0 0 0 0 0 0 0 0 1 2 2 2 3 3 3 3 3 3 3 3 4 5 5 4 3 3 3 2 3 5 5 4 3 2 1 1 0 0 0 0 0 0 0
0 0 0 0 0 0 0 0 0 0 0 0 0 0 1 2 3 3 3 3 3 3 3 3 3 3 3 3 2 2 3 3 3 3 3 4 4 3 3 1 0 0 0 0 0 0 0 0 0
0 0 0 0 0 0 0 0 0 0 0 0 0 1 1 3 3 3 3 3 3 3 3 3 3 3 3 3 1 1 2 2 2 2 2 3 3 3 2 1 0 0 0 0 0 0 0 0 0
0 0 0 0 0 0 0 0 0 0 0 0 1 2 2 2 3 3 3 3 3 3 3 3 3 3 3 3 2 1 1 1 1 1 2 2 2 1 1 0 0 0 0 0 0 0 0 0 0
0 1 1 0 0 0 0 0 0 0 0 0 1 2 1 1 2 3 3 3 3 3 3 3 3 3 3 3 2 1 0 0 0 0 1 1 1 0 0 0 0 0 0 0 0 0 0 0 0
1 2 2 1 0 0 0 0 0 0 0 0 1 2 1 1 1 1 2 3 3 3 3 3 3 3 3 3 2 1 0 0 0 0 0 0 0 0 0 0 0 0 0 0 0 0 0 0 0
1 2 2 1 0 0 0 0 0 0 0 0 1 2 1 1 1 0 1 2 3 3 3 3 3 3 3 3 2 1 0 0 0 0 0 0 0 0 0 0 0 0 0 0 0 0 0 0 0
0 1 1 0 0 0 0 0 0 0 0 0 1 1 1 2 2 1 0 1 3 4 4 3 3 3 3 3 2 1 0 0 0 0 0 0 0 0 0 0 0 0 0 0 0 0 0 0 0
0 0 0 0 0 0 0 0 0 0 0 0 0 0 0 1 1 1 0 1 3 5 5 4 3 3 3 3 3 1 0 0 0 0 0 0 0 0 0 0 0 0 0 0 0 0 0 0 0
0 0 0 0 0 0 0 0 0 0 0 0 0 0 0 0 0 0 0 1 3 5 5 5 4 3 3 3 3 2 1 0 0 0 0 0 0 0 0 0 0 0 0 0 0 0 0 0 0
0 0 0 0 0 0 0 0 0 0 0 0 0 0 0 0 0 0 0 1 3 5 5 4 4 3 3 3 3 3 1 0 0 0 0 0 0 0 0 0 0 0 0 0 0 0 0 0 0
0 0 0 0 0 0 0 0 0 0 0 0 0 0 0 0 0 0 0 1 3 5 6 5 4 3 3 3 3 3 2 1 0 0 0 0 0 0 0 0 0 0 0 0 0 0 0 0 0
0 0 0 0 0 0 0 0 0 0 0 0 0 0 0 0 0 0 0 1 3 6 6 6 5 4 3 3 3 3 3 2 1 0 0 0 0 0 0 0 0 0 0 0 0 0 0 0 0
0 0 0 0 0 0 0 0 0 0 0 0 0 0 0 1 1 1 0 1 3 6 6 6 6 5 4 3 3 3 3 3 1 0 0 0 0 0 0 0 0 0 0 0 0 0 0 0 0
0 0 0 0 0 0 0 0 0 0 0 0 0 0 0 1 1 1 0 1 3 5 5 5 5 6 5 4 3 3 3 3 2 1 0 0 0 0 0 0 0 0 0 0 0 0 0 0 0
0 0 0 0 0 0 0 0 0 0 0 0 0 0 0 0 0 0 0 0 1 3 4 4 4 6 6 5 4 3 3 3 3 1 0 0 0 0 0 0 0 0 0 0 0 0 0 0 0
0 0 0 0 0 0 0 0 0 0 0 0 0 0 0 0 0 0 0 0 1 2 3 3 4 6 6 6 4 3 3 3 3 2 1 0 0 0 0 0 0 0 0 0 0 0 0 0 0
0 0 0 0 0 0 0 0 0 0 0 0 0 0 0 0 0 0 0 0 0 1 2 3 4 5 6 6 4 3 3 3 3 3 1 0 0 0 0 0 0 0 0 0 0 0 0 0 0
0 0 0 0 0 0 0 0 0 0 0 0 0 0 0 0 0 0 0 0 0 0 1 3 3 4 5 6 4 3 3 3 3 3 2 1 0 0 0 0 0 0 0 0 0 0 0 0 0
0 0 0 0 0 0 0 0 0 0 0 0 0 0 0 0 0 0 0 0 0 0 1 2 3 3 4 6 5 4 3 3 3 3 3 2 1 0 0 0 0 0 0 0 0 0 0 0 0
0 0 0 0 0 0 0 0 0 0 0 0 0 0 0 0 0 0 0 0 0 0 0 1 2 3 4 5 5 4 3 3 3 3 3 2 1 0 0 0 0 0 0 0 0 0 0 0 0
0 0 0 0 0 0 0 0 0 0 0 0 0 0 0 0 0 0 0 0 0 0 0 0 1 2 3 4 4 3 3 3 3 3 3 2 1 0 0 0 0 0 0 0 0 0 0 0 0
0 0 0 0 0 0 0 0 0 0 0 0 0 0 0 0 0 0 0 0 0 0 0 0 0 1 3 3 3 3 3 3 3 3 2 2 1 1 1 0 0 0 0 0 0 0 0 0 0
Wind_Speed
3 2 3 4 7 6 3 1 1 3 4 4 7 8 7 5 4 4 2 5 7 5 3 4 8 9 9 10 10 11 11 12 12 12 12 12 12 12 12 12 12 12 12 12 12 12 12 12 12
2 1 4 5 6 4 2 0 3 4 5 5 6 7 7 5 4 5 3 6 7 6 4 4 8 9 10 10 10 10 11 11 11 11 11 12 12 11 11 11 11 11 11 12 12 12 12 12 12
2 1 4 5 4 4 2 1 3 5 5 5 5 5 5 4 4 4 5 8 7 5 3 5 9 9 10 10 10 10 10 11 11 11 11 12 12 11 11 11 11 11 11 11 11 11 11 11 11
3 5 5 6 4 2 5 4 5 6 5 5 6 5 3 3 4 5 8 9 8 5 4 5 9 9 9 10 10 10 10 10 10 11 11 11 12 11 11 11 10 10 10 10 10 11 11 11 11
4 5 6 4 2 1 3 4 5 6 4 5 7 5 3 3 6 9 8 9 8 5 3 5 9 9 9 10 10 9 10 10 11 11 11 11 11 11 11 10 9 9 9 9 10 10 10 10 10
5 5 5 3 2 2 2 3 7 8 7 6 6 5 2 2 6 7 7 7 7 7 4 4 8 9 9 9 9 9 9 10 10 10 10 10 10 10 9 9 9 9 9 9 9 9 9 9 9
5 4 3 3 3 2 2 3 6 7 6 4 5 5 2 1 4 6 7 6 6 6 5 3 3 5 7 7 8 8 8 9 9 9 9 10 10 9 9 8 8 8 8 8 8 9 9 9 9
5 5 3 2 4 1 1 3 5 7 5 5 5 6 4 4 4 6 6 5 5 5 4 4 3 2 2 3 6 7 7 7 8 8 8 9 9 8 8 7 7 8 8 8 8 8 9 9 10
5 6 2 3 4 2 2 5 3 4 6 4 3 4 6 7 7 6 5 3 3 4 4 4 3 2 2 2 4 4 5 5 6 5 7 6 3 3 4 5 7 8 8 8 8 7 8 9 9
5 3 2 3 4 3 2 4 3 4 6 4 5 4 7 7 8 7 5 4 4 4 4 4 4 3 2 2 2 1 2 2 3 2 3 2 2 2 3 4 6 7 7 6 6 7 7 6 4
3 3 2 2 3 4 3 2 3 6 3 5 8 8 7 7 6 6 5 5 5 4 4 4 4 3 2 1 2 1 1 1 2 3 3 3 2 2 2 2 2 3 5 3 4 5 3 3 3
4 2 2 2 3 3 2 2 3 3 5 7 10 11 9 8 7 7 6 5 5 5 4 4 4 3 2 2 2 2 2 1 2 2 3 3 2 2 2 1 1 2 1 2 2 2 2 3 3
3 1 1 2 3 3 4 3 3 1 3 6 8 8 9 8 6 5 5 5 5 5 5 4 4 4 3 3 2 3 2 2 2 2 2 4 3 2 1 1 1 1 1 2 2 2 2 3 3
2 2 1 2 2 3 4 2 3 2 5 7 8 8 8 8 7 5 4 5 5 5 5 5 5 4 4 3 3 2 2 2 3 2 3 4 3 2 2 2 2 1 1 1 1 2 2 2 3
2 3 2 1 1 1 5 3 1 4 6 7 6 7 7 6 7 7 6 6 6 6 5 5 6 5 5 4 3 3 2 3 2 2 3 3 3 3 3 2 2 1 1 2 2 3 3 3 3
3 3 1 3 2 2 5 2 5 3 6 6 5 5 5 5 6 6 6 6 6 5 5 5 6 5 5 4 3 2 2 3 2 2 2 3 3 3 3 2 1 1 2 2 2 2 3 3 2
3 1 2 3 2 2 4 4 5 3 5 6 6 5 5 4 5 5 6 6 6 6 5 5 5 5 4 4 3 3 2 2 2 2 2 2 3 3 3 2 1 2 2 2 2 2 2 2 2
2 2 2 3 3 2 2 5 5 4 5 6 6 5 5 6 6 5 6 6 6 5 5 5 4 4 4 3 3 2 2 2 2 2 2 2 2 3 3 2 2 2 2 2 2 2 2 1 1
4 3 3 5 4 2 4 5 6 6 4 5 5 5 6 6 5 5 6 6 6 5 5 5 4 3 3 3 2 2 1 1 1 1 2 3 3 3 3 3 2 2 2 2 2 2 2 2 2
3 2 2 4 3 2 4 5 5 5 7 8 8 7 7 6 4 5 6 6 6 6 6 5 5 4 4 3 3 3 2 1 1 1 1 2 3 3 3 3 2 2 2 2 2 2 1 1 1
2 3 3 3 3 2 1 4 3 3 2 3 5 6 7 9 9 7 7 6 7 6 7 6 5 5 4 4 3 2 3 2 2 1 1 1 2 3 3 3 3 2 2 2 1 2 2 1 1
2 4 3 2 1 3 1 3 6 4 3 4 5 5 6 7 7 7 7 6 7 7 6 6 6 5 4 5 5 5 3 2 2 2 1 1 2 2 3 3 3 3 2 2 1 2 2 2 1
4 3 1 2 1 2 1 2 7 2 4 6 6 6 7 8 8 8 8 8 7 6 5 5 5 5 4 4 5 5 3 2 2 1 1 1 1 1 2 3 3 2 2 2 2 2 2 2 2
1 3 5 4 3 2 4 3 6 4 6 5 6 6 7 7 7 7 6 6 5 4 4 4 5 5 4 5 5 5 5 4 3 2 2 1 0 1 1 2 2 2 2 2 2 2 2 2 2
4 5 4 4 3 5 3 2 7 6 5 6 7 7 6 6 6 7 7 6 5 5 5 4 5 5 5 5 5 5 6 6 5 4 3 2 1 1 2 2 2 2 2 2 2 2 2 2 2
2 6 5 3 3 4 3 3 6 5 2 3 4 5 5 5 5 7 7 7 6 6 6 6 5 4 5 5 5 4 4 4 3 3 3 3 2 2 2 2 2 2 3 3 2 2 2 2 2
2 2 5 4 2 2 3 4 5 2 2 1 2 3 3 4 5 6 6 6 5 5 5 5 5 4 5 5 5 4 3 3 3 3 3 2 2 2 2 2 2 2 2 3 3 2 3 2 2
4 4 4 3 2 2 4 3 4 3 2 1 1 2 3 3 3 4 4 5 5 5 4 4 5 5 4 5 4 4 3 4 4 3 3 3 2 2 2 2 2 2 2 2 2 2 2 3 2
1 1 3 3 3 4 2 5 4 4 3 2 2 2 3 3 3 3 3 4 4 3 3 4 3 3 3 4 4 4 3 3 3 3 3 3 3 3 3 3 3 2 2 2 2 2 3 3 3
4 4 4 3 3 3 3 7 4 2 2 2 2 2 2 3 3 3 4 3 3 3 3 4 4 3 3 4 4 4 3 3 3 3 3 3 3 3 3 3 3 3 2 2 3 3 3 4 4
Wind_Direction
326 358 84 60 55 55 65 70 132 66 54 56 69 81 83 70 89 123 199 148 130 124 113 102 100 96 90 85 83 82 81 80 83 85 84 84 85 86 88 86 84 82 80 78 77 77 76 73 72
350 23 61 58 77 76 34 81 94 96 134 120 80 81 78 73 94 113 130 140 129 127 122 111 107 102 96 90 86 84 84 83 85 85 86 84 83 85 87 87 85 84 82 79 77 76 75 73 71
329 64 75 67 84 130 146 162 116 99 107 100 81 60 76 104 111 130 151 140 129 122 124 119 110 105 103 98 93 89 88 87 87 88 85 84 83 85 88 90 88 85 84 81 79 76 75 72 71
54 46 56 73 91 167 156 172 131 106 72 62 90 62 51 91 130 141 141 133 127 129 131 124 115 110 107 104 99 96 93 90 89 88 88 86 85 85 88 88 86 85 84 83 81 78 75 72 71
63 69 64 66 78 106 143 147 123 100 82 76 89 89 55 28 105 127 132 133 135 137 136 129 120 115 109 106 104 100 96 93 93 92 91 90 89 89 88 86 85 85 84 83 80 77 74 70 68
59 69 83 92 66 54 52 97 99 93 101 99 97 103 85 97 118 135 134 134 139 142 141 132 127 121 114 109 107 104 101 98 98 95 93 94 91 89 88 85 83 84 83 80 77 74 71 69 68
96 87 109 125 92 68 91 89 106 115 118 133 125 106 120 145 146 138 135 131 133 134 129 127 132 126 123 120 115 112 110 107 104 100 96 95 92 91 87 83 83 83 79 76 72 67 66 68 68
119 93 80 107 114 116 91 79 108 116 116 126 115 127 163 195 151 124 119 119 127 132 135 143 137 125 127 128 125 123 118 113 110 105 98 93 90 88 83 77 78 83 83 79 72 67 66 67 65
86 81 118 162 144 152 98 90 68 75 96 80 85 136 162 155 126 110 104 103 121 131 144 153 150 146 145 155 135 125 120 113 110 107 103 93 74 69 72 71 77 83 83 81 75 69 65 64 61
86 111 189 177 152 140 109 109 117 84 81 77 74 93 126 132 126 130 136 138 140 147 154 159 160 162 163 157 123 113 111 104 101 101 101 93 82 68 75 64 70 73 74 70 70 69 63 59 53
119 149 143 105 128 121 111 93 96 115 123 156 150 149 145 137 139 149 159 155 156 148 145 153 158 159 153 135 139 130 112 106 102 108 113 100 84 68 57 48 47 49 51 43 49 51 46 50 61
97 97 117 119 97 97 119 94 72 122 182 176 160 156 153 155 163 166 167 161 152 142 145 155 154 144 143 137 142 138 131 126 121 125 121 114 100 79 65 58 43 35 32 40 43 54 49 59 72
100 135 134 122 100 115 101 102 106 138 159 148 147 145 154 165 171 175 167 159 150 151 151 151 147 146 142 125 128 125 137 137 131 124 123 122 116 109 96 77 59 42 44 51 48 58 64 68 71
159 140 124 132 120 110 105 86 102 189 144 137 148 157 165 165 163 157 153 151 156 158 156 145 144 151 135 126 126 129 129 124 114 119 127 122 122 123 112 86 72 53 42 52 65 79 75 67 78
109 77 17 319 151 157 100 31 219 203 153 150 167 170 172 171 162 166 167 161 163 162 153 151 150 142 136 135 132 122 122 112 111 122 125 126 128 127 119 105 87 74 65 65 63 60 61 65 70
45 55 351 285 175 170 122 220 253 213 156 165 177 174 178 182 175 175 163 156 158 149 142 146 148 140 138 135 126 113 114 110 115 123 121 124 126 122 114 107 102 91 78 71 74 66 65 57 62
26 135 241 293 239 163 144 218 242 207 167 178 182 179 174 180 183 173 155 150 148 148 146 141 138 143 140 134 119 110 111 105 111 112 112 115 118 116 114 112 111 98 82 72 81 68 82 75 59
220 202 233 252 260 149 187 237 241 217 184 192 191 184 173 179 192 173 157 150 145 145 142 135 132 133 129 113 96 79 74 81 84 101 116 119 115 116 114 108 100 95 85 64 64 70 58 82 81
181 181 233 254 244 187 217 239 235 219 200 194 193 189 184 194 195 160 154 148 144 144 139 139 138 138 128 120 125 120 121 123 95 105 116 120 113 113 113 110 104 101 104 106 94 91 67 49 62
169 183 260 291 278 202 225 249 241 210 204 196 191 191 191 189 175 161 152 151 152 154 150 148 152 152 152 157 158 154 152 146 138 124 91 112 121 124 125 122 122 118 107 88 84 92 89 39 57
204 190 212 244 308 333 334 320 297 262 221 198 189 189 188 186 184 174 164 164 159 160 165 163 168 165 161 148 125 101 72 53 52 61 89 127 136 131 130 135 130 126 124 132 132 118 119 122 357
242 236 217 232 6 291 173 284 287 253 237 222 209 192 188 188 180 172 166 168 173 177 174 166 166 163 157 144 140 143 147 162 193 185 174 154 143 138 138 144 141 141 141 146 156 122 124 128 137
224 241 258 244 222 305 314 201 282 259 225 231 218 202 192 188 181 176 175 176 176 174 173 168 160 162 156 150 150 146 145 170 167 144 135 143 143 151 148 148 149 152 154 162 156 133 126 130 150
157 38 18 37 76 290 247 188 272 237 217 215 214 199 196 189 181 177 172 165 169 164 155 162 159 164 161 157 154 155 159 159 144 149 161 171 173 191 190 162 163 168 167 177 177 163 157 155 144
68 74 23 360 9 258 264 199 247 250 220 196 194 193 196 186 178 175 170 167 169 165 165 161 164 169 167 164 167 169 171 166 167 174 178 171 176 210 227 192 189 185 185 184 174 171 182 180 170
179 139 156 203 233 278 312 243 259 268 238 182 179 172 168 176 183 181 182 179 177 176 171 169 166 174 170 170 179 178 173 167 174 179 174 181 197 210 207 194 198 201 192 189 179 183 203 192 196
144 172 177 154 221 274 283 283 307 346 19 60 133 136 163 183 188 185 179 176 176 176 178 173 171 173 177 174 171 169 172 168 174 178 173 183 205 207 187 184 193 207 198 193 183 197 213 204 210
155 157 93 118 176 264 289 268 251 277 279 292 194 181 182 181 176 179 176 177 179 178 176 168 168 171 175 173 174 171 182 183 179 166 169 181 197 198 185 190 193 197 198 195 187 206 214 199 217
120 113 122 141 169 171 249 274 240 214 217 196 208 207 183 176 179 179 181 180 172 162 161 164 169 168 170 180 177 171 185 187 176 180 195 196 195 193 195 200 200 201 208 209 197 211 208 207 219
172 173 147 160 239 183 184 263 284 213 192 168 187 198 180 175 176 174 166 160 157 161 164 170 175 179 193 191 180 181 183 175 182 200 207 198 197 202 200 195 196 203 207 210 204 217 218 214 218